Preview of NWS' New Version of Forecast
This preview is not operational and should not be used for support decisions.

Regional Weather Roundup (RWR)

Issued by National Weather Service (NWS)

                            
000
ASUS43 KLSX 211307
RWRMO 

WEATHER SUMMARY FOR MISSOURI
NATIONAL WEATHER SERVICE SPRINGFIELD MO
800 AM CDT SAT SEP 21 2019

NOTE: "FAIR" INDICATES FEW OR NO CLOUDS BELOW 12,000 FEET WITH NO
       SIGNIFICANT WEATHER AND/OR OBSTRUCTIONS TO VISIBILITY.
       CURRENT SKY AND/OR WEATHER CONDITIONS ARE NOT AVAILABLE FOR
       CHILLICOTHE AND FARMINGTON.

MOZ001>031-035>038-043-044-053-054-211400-
...NORTHERN AND WESTERN MISSOURI...
  
CITY           SKY/WX    TMP DP  RH WIND       PRES   REMARKS
KANSAS CTY INT CLOUDY    74  71  91 S18       29.97R                  
KANSAS C DTWN  CLOUDY    77  69  76 S14       29.97R                  
LEE'S SUMMIT     N/A     74  69  85 S18G28    29.99R                  
ST JOSEPH      CLOUDY    73  70  90 S12G21    29.94S                  
CHILLICOTHE      N/A     72  70  93 S7        30.00R                  
KIRKSVILLE     CLOUDY    73  69  87 S12G21    30.03S                  
     
$$
MOZ066>068-077>081-088>096-101>105-211400-
...SOUTHWEST MISSOURI...
  
CITY           SKY/WX    TMP DP  RH WIND       PRES   REMARKS
SPRINGFIELD    SUNNY     73  67  81 S14G24    30.10R                  
JOPLIN         CLOUDY    75  69  81 S18G25    30.06R                  
BRANSON        MOSUNNY   70  68  94 SE8       30.15R                  
               
$$
MOZ032>034-039>042-045>050-055>058-069>072-211400-
...CENTRAL MISSOURI...  
  
CITY           SKY/WX    TMP DP  RH WIND       PRES   REMARKS
COLUMBIA       CLOUDY    75  68  78 S13       30.08R                  
JEFFERSON CITY CLOUDY    76  68  76 S8        30.08R                  
ROLLA          MOSUNNY   73  66  78 S13       30.13R                  
SEDALIA        MOSUNNY   73  69  87 S17G24    30.05R                  
WARRENSBURG    PTSUNNY   73  68  83 S13       30.02R                  
OSAGE BEACH    MOSUNNY   73  32  22 S8        30.10R                  
               
$$
MOZ051-052-059>065-211400-
...EAST CENTRAL MISSOURI...
  
CITY           SKY/WX    TMP DP  RH WIND       PRES   REMARKS
ST LOUIS INTL  CLOUDY    75  68  78 S13       30.13R                  
SPIRIT OF STL  CLOUDY    75  69  81 S7        30.11R                  
ST CHARLES       N/A    N/A N/A N/A MISG      30.11S                  
                   
$$
MOZ072>076-082>087-097>100-106>115-211400-
...SOUTH CENTRAL AND SOUTHEAST MISSOURI...
  
CITY           SKY/WX    TMP DP  RH WIND       PRES   REMARKS
CAPE GIRARDEAU FAIR      71  65  81 S8        30.20R                  
FARMINGTON     PTSUNNY   70  67  90 S7        30.19R                  
POPLAR BLUFF   CLOUDY    71  65  81 SE3       30.18R                  
WEST PLAINS    CLOUDY    71  68  90 S7        30.19R                  
                                       
$$